Lapse_Rate
6.5 6.5 6.5 6.5 6.5 6.5 6.5 6.5 6.5 6.5 6.5 6.5 6.5 6.5 6.5 6.2 6.3 6.0 6.4 6.0 5.8 4.9 4.1 3.0 2.0 1.8 1.2 0.5 0.7 0.8 0.8 0.6 0.1 -0.0 0.1 0.1 0.4 0.8 0.9 1.3 1.4 1.7 1.7 1.5
6.5 6.5 6.5 6.5 6.5 6.5 6.5 6.5 6.5 6.5 6.5 6.5 6.5 6.3 6.4 6.7 6.3 6.9 6.9 6.5 5.7 4.8 3.7 2.6 1.6 1.3 1.1 0.8 0.9 1.2 0.7 0.1 -0.1 0.1 0.3 0.5 0.8 1.0 1.1 1.3 1.6 1.5 1.6 1.6
6.5 6.5 6.5 6.5 6.5 6.5 6.5 6.5 6.5 6.5 6.5 6.5 6.5 6.5 6.5 6.7 6.5 6.9 7.1 6.4 5.5 4.4 3.5 2.3 1.7 1.2 1.1 1.0 0.8 0.9 0.4 0.4 0.4 0.6 0.8 1.0 1.2 1.5 1.7 1.7 1.6 1.7 1.7 1.7
6.5 6.5 6.5 6.5 6.5 6.5 6.5 6.5 6.5 6.5 6.5 6.5 6.5 6.5 6.4 5.7 6.4 6.9 6.9 6.1 5.0 4.1 2.6 1.8 1.5 1.3 0.5 0.9 0.8 0.7 0.8 0.8 1.0 1.2 1.1 1.3 1.8 2.0 1.7 1.8 1.9 1.9 1.8 1.7
6.5 6.5 6.5 6.5 6.5 6.5 6.5 6.5 6.5 6.5 6.5 6.5 6.2 5.9 6.3 5.6 5.5 5.7 5.8 5.1 4.0 3.1 1.8 1.5 1.4 1.1 0.5 0.8 1.0 1.4 1.3 1.3 1.4 1.7 1.6 1.9 2.0 1.9 1.7 1.9 1.7 1.5 1.6 1.8
6.5 6.5 6.5 6.5 6.5 6.5 6.5 6.5 6.5 6.5 6.5 6.5 6.5 6.5 6.5 4.3 4.4 4.5 4.3 3.0 1.7 1.9 1.7 1.4 1.3 1.2 1.0 1.2 2.0 1.8 1.5 1.4 1.7 2.0 2.3 2.1 1.8 1.6 1.1 1.1 1.5 1.5 2.2 2.4
6.5 6.5 6.5 6.5 6.5 6.2 6.5 6.5 6.4 6.4 6.4 6.4 6.5 6.0 5.5 3.9 3.0 3.4 2.7 1.6 1.5 1.8 1.7 0.9 1.2 1.6 1.5 1.9 1.7 1.1 1.2 1.5 1.8 1.8 1.5 1.4 1.2 1.1 1.1 1.2 1.4 1.7 2.1 2.3
6.5 6.5 6.5 6.3 6.3 6.5 6.5 5.2 5.7 5.7 5.4 5.0 4.4 4.7 2.0 2.2 2.3 2.2 1.3 0.9 0.6 0.5 0.5 1.1 1.6 2.0 1.5 0.8 0.7 1.3 1.4 1.2 1.0 1.3 1.9 1.4 1.5 1.4 1.2 1.3 1.8 2.0 2.2 2.7
6.5 6.5 6.5 5.4 6.1 5.4 4.4 5.4 5.3 5.6 4.0 2.9 2.4 3.4 2.7 2.5 1.9 2.0 1.0 0.7 0.8 -0.0 0.2 0.9 1.9 1.7 0.2 0.1 1.1 0.9 0.9 0.6 0.6 0.9 1.2 1.7 2.1 1.9 2.2 1.6 2.1 2.7 3.2 3.4
6.5 6.5 6.5 5.4 5.4 2.6 3.2 3.9 3.7 3.2 2.7 2.2 1.5 2.9 2.2 2.6 2.9 2.5 1.8 1.0 0.9 0.5 0.4 0.2 0.7 0.6 -0.0 0.5 0.9 0.8 0.3 0.4 0.8 1.3 1.0 1.1 1.6 2.1 2.2 2.5 2.9 3.5 4.1 4.7
6.5 6.5 5.6 4.9 4.2 2.6 2.9 3.7 3.1 3.3 2.4 2.0 1.4 1.7 2.0 2.4 2.5 2.3 1.6 1.5 1.0 0.0 -0.2 0.1 0.7 0.3 0.4 0.4 0.9 0.7 0.7 0.9 1.0 0.9 1.2 1.5 1.6 2.1 2.8 3.1 3.8 5.6 5.8 6.3
6.5 6.1 6.1 5.9 3.6 3.3 3.4 3.1 3.0 1.9 3.1 3.1 2.1 2.3 2.2 2.4 1.9 0.8 0.4 0.6 0.0 0.1 -0.0 0.5 0.4 0.1 0.4 0.7 1.5 1.2 1.0 1.2 1.4 1.4 1.3 1.7 1.9 2.4 3.5 4.5 5.1 5.8 6.4 7.0
6.4 3.9 2.7 3.2 3.3 3.6 3.2 3.1 3.2 2.5 2.4 2.5 3.1 2.4 1.8 1.4 1.6 1.7 0.9 0.5 0.1 -0.2 -0.3 0.1 0.0 -0.0 0.2 0.7 1.4 1.2 1.0 1.3 2.0 1.9 2.0 2.1 1.8 2.0 2.0 2.5 4.0 5.1 6.0 6.6
3.6 2.4 5.1 4.3 4.3 3.2 2.8 3.0 2.2 1.8 2.4 1.7 1.5 1.7 1.2 0.8 1.2 0.3 -0.1 -0.4 -0.2 -0.2 -0.0 0.0 0.1 -0.0 0.3 0.8 1.2 1.1 1.8 2.4 1.5 1.6 1.8 2.0 2.3 2.7 3.1 3.7 3.8 3.7 4.4 5.5
3.0 3.3 3.6 1.6 2.2 2.3 2.7 2.7 2.0 2.0 2.0 1.7 1.6 1.1 1.0 0.7 0.1 -0.5 -0.3 0.0 0.0 -0.1 0.1 0.5 0.2 -0.2 0.7 1.4 1.6 1.3 1.7 1.7 1.4 1.6 1.7 2.8 2.6 3.1 3.7 4.0 4.1 4.2 4.4 4.8
2.1 1.6 2.9 2.1 3.0 2.8 2.6 2.6 1.6 2.3 1.5 1.5 0.6 0.1 -0.4 -0.8 -0.7 -0.5 0.0 0.6 0.9 1.0 0.8 0.9 0.5 0.4 1.0 1.2 0.8 0.9 1.4 3.4 2.6 1.7 1.9 2.4 3.0 3.5 3.8 3.9 4.1 4.4 4.7 5.3
2.6 3.5 2.7 2.7 2.5 2.7 3.3 2.6 1.5 1.3 1.1 0.6 -0.4 -0.6 -0.6 -0.4 0.3 0.5 0.4 0.9 0.7 0.9 1.5 1.5 0.7 1.0 1.0 0.6 1.0 0.9 1.1 1.5 2.9 1.8 2.1 2.6 3.2 3.8 3.8 4.1 4.5 4.8 4.9 5.2
3.1 1.4 2.5 2.2 2.8 2.1 1.9 0.9 0.9 0.7 0.4 -0.1 -0.5 -0.1 0.4 1.0 0.3 0.4 0.5 0.6 0.5 0.8 1.4 1.1 0.9 0.8 0.7 0.9 1.1 1.1 1.1 1.1 1.6 1.8 2.3 2.8 4.0 3.7 3.9 4.0 4.4 4.7 4.8 4.8
1.8 0.7 1.4 1.7 1.9 1.3 0.8 0.5 0.4 0.3 0.4 0.4 0.1 -0.3 -0.3 -0.4 -0.1 -0.1 0.4 0.6 0.5 0.4 0.8 1.5 2.4 1.3 1.4 2.3 1.1 0.9 1.0 1.2 1.4 1.7 2.0 3.2 2.7 3.2 3.7 4.0 4.4 4.6 4.8 4.8
-0.4 0.2 0.6 0.4 1.0 0.2 -0.2 0.4 0.7 0.6 0.2 -0.5 -0.6 -0.3 -0.5 -0.4 -0.2 0.0 0.6 -0.0 0.5 0.4 0.7 1.1 1.0 0.7 0.8 2.0 1.4 0.4 0.7 1.0 1.2 1.5 1.8 3.0 2.7 3.3 3.4 3.8 4.2 4.1 4.3 4.7
-0.3 0.4 0.7 0.6 0.4 0.6 0.3 0.5 0.0 -0.3 0.2 -0.3 -0.8 -0.6 -0.9 -0.8 -0.3 -0.1 0.3 -0.3 0.0 1.2 1.1 1.7 0.8 0.7 1.0 0.8 0.3 0.4 0.8 1.0 1.3 1.4 1.6 1.9 2.1 2.4 2.9 3.2 3.1 3.8 4.0 4.4
-0.4 -0.1 0.2 0.4 0.3 0.2 0.4 0.3 -0.7 -1.4 -1.0 -1.0 -1.2 -1.1 -0.8 -0.4 -0.4 -0.3 0.0 0.1 0.2 2.1 0.9 0.7 0.6 2.1 1.8 1.2 0.2 0.3 0.5 0.8 1.2 1.4 1.6 1.8 2.0 2.1 2.1 2.4 2.5 3.0 3.5 3.4
1.1 0.9 0.7 0.7 0.1 -1.1 -0.5 -0.5 -1.1 -1.1 -1.1 -0.7 -0.9 -0.6 -0.5 -0.9 0.0 0.3 -0.1 0.8 0.6 2.2 0.7 0.8 3.1 3.1 2.2 -0.4 -0.2 -0.1 0.2 0.6 1.0 1.1 1.1 1.0 1.4 1.4 1.6 2.0 2.7 3.2 2.3 2.3
1.3 1.4 -0.4 -0.7 -0.7 -0.7 -1.4 -1.7 -1.6 -1.7 -1.9 -1.5 -1.4 -0.9 -1.1 -1.0 -0.8 -0.1 1.3 2.0 3.2 1.6 0.8 1.4 2.8 2.9 1.1 -0.7 -0.6 -0.4 0.1 0.5 0.2 -0.1 0.4 2.5 0.9 1.1 1.4 1.7 1.8 2.2 2.0 2.1
0.2 0.3 -0.4 -0.1 -0.4 -1.8 -2.9 -2.7 -2.4 -1.9 -1.6 -1.4 -1.2 -0.9 -0.9 -0.7 -0.5 -0.9 -0.1 1.1 2.4 0.0 -0.3 2.7 2.6 1.5 -0.9 -0.8 -0.4 -0.3 -0.1 -0.3 -0.8 0.2 0.8 0.4 0.7 0.6 0.8 1.1 1.3 1.9 3.0 2.9
1.2 1.6 0.6 -0.3 -1.9 -2.1 -1.9 -0.7 -1.4 -0.9 -1.0 -1.2 -1.2 -1.3 -1.2 -0.6 -0.0 -1.5 -0.9 -0.3 -0.7 0.4 -1.4 -1.2 -0.4 -0.7 -0.8 -0.6 -0.1 -0.2 -0.0 -0.1 -0.0 -0.2 1.1 0.6 0.3 0.1 0.3 0.8 1.1 1.5 1.6 1.2
-0.3 -0.4 -1.0 -1.2 -1.2 -1.3 -2.0 -1.2 -1.6 -0.7 -0.4 -1.0 -2.4 -1.7 -1.4 -1.2 -0.6 -1.2 -0.7 -1.9 -1.7 -1.6 -1.7 -1.7 -1.5 -0.3 -0.1 0.2 -0.3 -0.2 -0.5 -0.5 0.2 0.6 0.3 -0.6 -0.5 -0.5 -0.0 0.3 0.6 0.8 0.9 0.9
Wind_Speed
22 24 24 26 27 21 22 28 14 16 19 27 16 16 9 6 5 5 7 8 9 11 12 14 14 14 14 14 14 13 14 13 12 12 12 11 10 9 8 7 6 5 4 3
20 22 22 21 25 21 20 23 19 19 22 20 16 6 5 10 8 8 9 9 11 12 14 15 15 14 14 14 14 13 13 12 12 12 11 10 10 9 8 7 5 4 4 3
11 11 20 6 8 7 7 13 15 14 17 8 11 7 10 14 7 10 11 12 13 14 13 12 13 15 15 14 13 13 13 12 12 11 11 10 9 8 7 5 4 3 3 3
7 9 4 5 4 8 3 12 15 13 13 8 8 9 11 8 8 9 11 12 13 12 12 12 13 13 14 13 12 13 12 12 11 11 10 9 8 7 6 3 3 2 2 4
4 6 10 2 3 5 2 3 15 18 14 10 4 5 2 5 3 8 10 11 12 11 13 13 14 14 14 12 12 12 11 11 10 11 10 8 7 6 4 3 2 2 2 3
3 4 4 4 7 4 4 8 2 10 9 3 2 3 3 7 3 10 12 13 15 14 13 13 12 14 15 12 12 11 11 10 10 9 9 8 7 5 3 2 1 2 4 3
6 4 7 4 9 1 5 3 4 2 4 3 1 2 2 5 10 9 11 15 14 13 12 13 13 14 13 12 11 11 11 11 9 8 8 7 5 3 3 2 3 3 5 5
2 2 6 2 4 4 3 5 3 2 2 4 7 8 8 9 9 11 13 13 13 13 12 11 12 14 13 12 10 11 11 10 9 8 6 5 6 3 3 2 3 4 5 7
6 5 4 3 4 2 2 4 3 2 0 4 7 6 9 9 10 9 11 11 11 14 14 10 9 12 15 10 11 11 10 10 9 7 6 4 4 3 2 3 3 4 5 6
2 4 5 4 1 3 4 3 4 5 6 5 9 9 12 11 9 9 10 11 12 15 14 12 11 12 13 11 10 11 11 9 6 6 5 3 2 2 2 2 3 4 6 7
5 7 6 3 3 3 4 5 9 10 9 11 13 11 10 10 10 10 11 11 11 13 13 13 12 12 10 10 10 10 9 7 6 4 3 3 2 1 2 2 3 6 6 7
4 2 2 1 4 4 3 5 8 13 12 11 12 13 12 11 10 11 12 12 13 14 15 12 12 11 8 7 9 9 8 5 4 3 2 2 2 3 5 7 11 11 13 10
1 2 2 5 6 3 6 7 9 11 12 15 11 12 13 13 12 17 13 14 13 13 13 12 11 10 7 6 7 7 7 5 3 3 2 3 3 4 7 7 9 11 12 15
3 7 3 3 4 7 10 11 13 13 11 12 13 11 14 14 14 13 13 12 13 13 12 11 11 9 5 6 8 7 5 9 3 2 3 3 3 4 4 5 8 8 13 14
5 1 1 9 10 10 9 13 14 12 11 12 10 13 13 14 14 12 11 11 12 12 10 10 10 7 5 6 7 6 5 4 3 3 3 4 3 4 4 6 6 7 8 10
5 7 8 10 8 10 11 12 14 11 11 11 12 12 12 13 13 11 10 10 13 10 8 9 8 5 5 6 6 5 4 8 6 3 3 3 4 4 5 6 7 7 8 9
9 6 7 8 11 11 8 8 12 11 11 12 12 12 14 14 13 11 9 9 10 9 7 8 8 6 6 5 6 4 3 3 6 3 3 4 4 4 5 6 7 7 8 9
2 4 6 11 13 13 10 10 12 12 13 14 13 12 13 12 12 10 10 10 10 9 7 6 6 6 6 6 5 4 3 3 3 3 3 3 4 5 5 6 7 8 9 9
2 8 11 13 12 12 12 12 11 13 13 12 13 10 10 11 11 10 9 10 9 10 4 5 12 9 6 7 6 3 3 3 3 3 3 6 5 5 6 6 7 8 8 8
7 8 12 12 12 15 14 12 14 13 12 13 13 13 12 10 10 10 8 6 4 4 5 6 6 6 5 6 7 3 3 3 3 3 4 5 5 6 6 8 8 8 8 8
9 10 13 14 12 12 13 14 14 14 11 12 14 12 12 9 9 9 10 7 3 6 6 9 5 4 3 4 4 3 2 3 3 4 4 5 6 6 6 7 7 7 8 8
9 11 12 14 13 12 10 12 13 14 13 11 12 13 13 10 8 8 5 6 4 11 5 3 3 6 4 6 2 2 2 3 3 4 4 4 5 6 6 7 7 7 8 8
8 11 12 13 13 13 12 10 11 12 14 12 12 11 9 6 6 8 6 3 4 7 3 3 7 7 6 2 2 2 3 3 4 5 5 5 5 5 6 6 7 7 7 8
10 10 11 13 14 14 14 7 10 10 11 10 9 9 10 7 5 3 8 11 13 9 4 5 5 5 4 2 2 2 3 4 5 4 5 9 5 5 5 6 7 7 7 9
9 10 12 13 12 9 12 12 11 10 11 10 9 7 7 3 4 4 5 5 12 7 4 6 5 5 2 2 2 2 3 3 4 4 4 5 5 5 6 6 6 7 7 7
10 8 7 8 9 9 9 9 9 7 9 8 6 5 6 6 7 6 5 8 5 7 3 2 2 2 2 2 3 3 4 5 5 5 6 5 5 5 6 6 6 7 7 8
8 13 9 8 7 8 7 9 11 9 8 8 8 5 6 6 7 7 8 4 4 3 3 2 2 3 3 3 3 3 5 4 7 6 4 5 5 5 6 6 6 7 8 8
Wind_Direction
257 266 274 265 262 246 222 229 233 252 232 263 269 270 275 268 296 199 173 156 146 138 132 129 125 123 122 121 125 127 123 122 126 124 121 120 119 121 120 113 108 110 103 74
276 268 263 274 273 265 234 229 238 250 262 267 270 281 298 311 323 211 178 156 142 137 136 135 133 131 127 127 127 127 122 124 127 123 122 121 122 122 115 111 107 99 82 50
279 331 307 274 290 276 225 192 215 233 247 260 294 307 305 290 243 210 175 151 147 141 138 135 135 134 132 130 125 121 122 128 127 124 122 122 124 120 117 110 108 88 52 8
286 312 298 292 324 324 250 185 208 249 269 285 282 277 279 271 252 177 152 144 141 136 129 128 127 124 123 124 123 121 125 127 126 121 120 123 122 119 117 105 86 61 22 343
286 311 279 242 344 317 336 244 204 224 247 257 304 299 308 347 127 148 143 139 133 131 129 129 130 130 120 119 119 124 129 128 125 125 126 127 121 117 108 91 69 33 327 336
314 289 296 286 317 331 161 33 240 205 232 231 324 353 347 348 64 111 122 129 127 128 126 124 129 126 122 125 128 128 127 122 122 125 124 122 120 110 88 76 32 350 343 333
245 274 286 279 306 278 52 303 318 218 192 210 186 15 58 69 67 92 115 118 117 123 130 128 127 124 124 127 121 120 115 114 113 111 111 114 107 87 94 59 18 351 337 335
197 270 290 24 356 47 258 304 296 291 196 214 100 96 65 70 77 90 101 103 109 112 111 117 125 124 120 111 119 116 113 108 107 108 108 103 104 103 74 37 8 352 330 326
181 224 265 306 243 309 323 253 312 277 222 139 116 98 97 74 70 79 96 101 107 112 106 94 108 122 115 123 120 113 107 109 107 99 96 97 94 86 47 16 353 333 328 323
345 283 268 300 51 42 7 29 28 76 89 80 108 106 98 91 92 95 96 103 111 109 104 95 94 101 113 118 115 110 108 111 114 109 99 83 69 60 31 343 331 328 329 328
260 279 279 285 43 86 62 73 79 68 79 102 106 86 100 100 101 102 98 98 100 102 100 99 103 101 106 108 110 107 109 109 98 90 86 66 36 3 337 309 302 329 328 317
227 257 214 81 113 119 94 79 92 102 85 78 97 108 107 100 101 99 97 99 94 96 100 100 99 97 97 103 114 114 109 107 106 95 68 47 17 351 350 351 346 337 328 323
221 81 61 95 99 84 106 98 86 93 101 105 95 105 105 104 100 102 96 99 102 105 102 101 99 95 91 96 102 102 110 110 94 83 63 31 18 6 346 342 335 334 333 332
152 125 76 216 150 114 113 103 96 88 87 97 104 99 102 101 99 95 96 103 104 102 98 99 96 91 90 95 96 98 98 100 93 81 48 33 15 356 342 333 330 326 330 334
164 289 61 112 107 108 120 121 106 105 106 95 94 105 107 106 103 104 105 104 101 100 99 101 99 93 95 98 99 99 98 92 78 59 35 26 2 348 341 330 320 313 320 326
101 94 113 112 125 128 134 128 117 121 115 113 108 102 103 105 106 104 104 114 117 117 112 108 105 114 103 97 97 84 64 67 66 49 25 6 358 348 336 326 323 323 320 323
124 132 137 136 150 146 140 126 124 125 120 115 114 115 111 108 103 99 90 92 101 106 111 114 113 105 95 91 93 81 69 51 51 43 17 359 344 336 331 329 322 317 315 319
42 112 142 148 150 136 123 117 121 122 123 124 117 118 119 121 124 119 114 110 101 90 92 105 111 106 94 87 83 81 76 61 40 27 359 344 341 339 330 319 318 318 318 320
104 128 127 131 135 127 127 122 116 116 117 124 120 113 113 114 120 121 121 114 112 110 112 111 104 94 96 85 81 74 65 48 30 7 350 345 344 333 326 323 321 319 321 321
99 97 111 113 121 129 124 122 123 120 125 121 117 116 114 115 121 115 105 92 97 123 122 107 98 90 78 74 78 70 63 42 16 359 347 350 334 325 322 327 324 321 319 321
116 120 120 121 118 120 125 132 128 125 128 130 127 127 125 115 113 120 113 110 111 119 117 110 104 88 89 84 73 65 51 21 7 351 333 325 321 320 321 321 317 318 318 318
135 129 126 126 123 117 123 126 124 124 118 114 115 122 121 115 105 82 57 119 143 121 110 100 109 106 93 78 67 54 28 5 340 327 325 324 317 315 315 313 311 314 311 310
127 128 125 127 126 117 107 111 114 121 122 127 128 129 126 121 122 123 119 135 105 119 110 122 111 92 80 64 52 30 4 344 334 328 318 308 302 305 306 308 307 308 306 306
125 120 114 117 119 115 110 101 102 103 107 108 108 119 128 120 75 60 119 133 127 118 106 93 92 84 73 42 29 5 343 334 325 309 303 314 305 300 300 299 297 302 300 300
116 123 128 131 125 120 120 116 106 103 103 100 96 90 94 67 114 130 108 114 117 98 69 80 84 61 49 26 1 346 327 313 300 290 305 297 296 298 298 295 292 300 300 303
131 130 121 117 126 130 130 130 123 125 123 113 93 93 91 98 110 110 104 110 97 102 92 64 41 57 22 356 355 329 313 311 317 305 302 299 297 295 296 293 297 299 297 294
102 115 113 109 115 125 125 135 130 132 131 130 114 105 111 110 119 113 109 99 98 94 86 52 27 14 359 344 326 312 309 300 305 299 297 292 288 286 290 292 296 294 293 290